TimeEDT,TemperatureF,Dew PointF,Humidity,Sea Level PressureIn,VisibilityMPH,Wind Direction,Wind SpeedMPH,Gust SpeedMPH,PrecipitationIn,Events,Conditions,WindDirDegrees,DateUTC
12:52 AM,72.0,66.9,84,30.06,7.0,WSW,8.1,-,N/A,,Clear,240,2013-08-22 04:52:00
1:52 AM,72.0,68.0,87,30.07,6.0,SW,5.8,-,N/A,,Clear,230,2013-08-22 05:52:00
2:40 AM,71.6,69.8,94,30.07,4.0,WSW,4.6,-,N/A,,Partly Cloudy,240,2013-08-22 06:40:00
2:52 AM,71.1,69.1,93,30.07,4.0,Variable,4.6,-,N/A,,Scattered Clouds,0,2013-08-22 06:52:00
3:08 AM,71.6,69.8,94,30.06,4.0,SW,4.6,-,N/A,,Mostly Cloudy,230,2013-08-22 07:08:00
3:52 AM,71.1,69.1,93,30.06,4.0,SW,4.6,-,N/A,,Overcast,230,2013-08-22 07:52:00
4:52 AM,71.1,69.1,93,30.05,4.0,SW,6.9,-,N/A,,Overcast,230,2013-08-22 08:52:00
5:52 AM,71.1,69.1,93,30.04,5.0,SW,5.8,-,N/A,,Overcast,230,2013-08-22 09:52:00
6:52 AM,72.0,70.0,93,30.04,4.0,Variable,4.6,-,0.01,,Overcast,0,2013-08-22 10:52:00
7:52 AM,73.0,69.1,87,30.04,4.0,SW,8.1,-,N/A,,Overcast,220,2013-08-22 11:52:00
8:52 AM,73.9,70.0,87,30.03,5.0,SW,6.9,-,N/A,,Overcast,220,2013-08-22 12:52:00
9:52 AM,73.9,70.0,87,30.03,5.0,SW,6.9,18.4,N/A,,Overcast,230,2013-08-22 13:52:00
10:52 AM,75.0,70.0,84,30.02,7.0,SW,8.1,18.4,N/A,,Overcast,220,2013-08-22 14:52:00
11:19 AM,80.6,71.6,74,30.01,8.0,SSW,11.5,17.3,N/A,,Scattered Clouds,210,2013-08-22 15:19:00
11:52 AM,78.1,71.1,79,30.01,8.0,SW,6.9,19.6,N/A,,Partly Cloudy,220,2013-08-22 15:52:00
12:52 PM,78.1,71.1,79,30.01,9.0,SW,9.2,19.6,N/A,,Scattered Clouds,220,2013-08-22 16:52:00
1:00 PM,78.8,71.6,78,30.00,9.0,SW,9.2,16.1,N/A,,Mostly Cloudy,230,2013-08-22 17:00:00
1:14 PM,78.8,71.6,78,30.00,9.0,SW,11.5,17.3,N/A,,Scattered Clouds,220,2013-08-22 17:14:00
1:52 PM,77.0,70.0,79,29.99,9.0,SW,8.1,-,N/A,,Partly Cloudy,220,2013-08-22 17:52:00
2:17 PM,75.2,69.8,83,29.98,9.0,SW,11.5,20.7,N/A,,Mostly Cloudy,220,2013-08-22 18:17:00
2:52 PM,75.9,70.0,82,29.96,10.0,Variable,6.9,20.7,N/A,,Scattered Clouds,0,2013-08-22 18:52:00
3:40 PM,73.4,69.8,88,29.95,8.0,SW,6.9,-,N/A,,Scattered Clouds,220,2013-08-22 19:40:00
3:52 PM,73.9,70.0,87,29.95,8.0,SW,9.2,16.1,N/A,,Scattered Clouds,220,2013-08-22 19:52:00
4:13 PM,73.4,69.8,88,29.94,7.0,SW,6.9,-,N/A,,Mostly Cloudy,220,2013-08-22 20:13:00
4:52 PM,73.9,69.1,85,29.93,9.0,Variable,6.9,18.4,N/A,,Scattered Clouds,0,2013-08-22 20:52:00
5:52 PM,73.0,69.1,87,29.91,10.0,SW,10.4,19.6,N/A,,Clear,220,2013-08-22 21:52:00
5:59 PM,73.4,69.8,88,29.91,10.0,SW,8.1,19.6,N/A,,Scattered Clouds,220,2013-08-22 21:59:00
6:06 PM,73.4,69.8,88,29.91,7.0,SW,12.7,18.4,N/A,,Mostly Cloudy,220,2013-08-22 22:06:00
6:25 PM,71.6,69.8,94,29.90,1.8,SW,15.0,21.9,N/A,,Overcast,220,2013-08-22 22:25:00
6:42 PM,71.6,69.8,94,29.89,2.0,SW,11.5,23.0,N/A,,Overcast,230,2013-08-22 22:42:00
6:52 PM,72.0,70.0,93,29.91,2.5,SW,6.9,23.0,N/A,,Overcast,230,2013-08-22 22:52:00
7:09 PM,71.6,69.8,94,29.91,3.0,WSW,8.1,-,N/A,,Overcast,240,2013-08-22 23:09:00
7:52 PM,73.0,70.0,90,29.91,7.0,SW,11.5,23.0,N/A,,Overcast,220,2013-08-22 23:52:00
8:16 PM,73.4,69.8,88,29.91,9.0,SW,9.2,21.9,N/A,,Overcast,230,2013-08-23 00:16:00
8:52 PM,73.0,70.0,90,29.92,10.0,SW,9.2,19.6,N/A,,Overcast,230,2013-08-23 00:52:00
9:52 PM,72.0,70.0,93,29.90,9.0,SW,12.7,19.6,N/A,,Overcast,220,2013-08-23 01:52:00
10:52 PM,72.0,69.1,91,29.89,10.0,SW,8.1,18.4,N/A,,Overcast,230,2013-08-23 02:52:00
11:05 PM,71.6,69.8,94,29.88,10.0,SW,8.1,20.7,N/A,,Overcast,230,2013-08-23 03:05:00
11:52 PM,73.0,70.0,90,29.87,10.0,SW,8.1,16.1,N/A,,Overcast,230,2013-08-23 03:52:00